QPF
0.01 0.01 0.00 0.00 0.01 0.01 0.02 0.01 0.01 0.01 0.00 0.00 0.00 0.00 0.00 0.01 0.01 0.00 0.00 0.00 0.00 0.01 0.01 0.01 0.01 0.01 0.03 0.06 0.08 0.07 0.05 0.04 0.03 0.04 0.04 0.06 0.06 0.06
0.01 0.00 0.01 0.01 0.01 0.01 0.01 0.01 0.01 0.01 0.01 0.00 0.00 0.01 0.01 0.01 0.01 0.00 0.00 0.00 0.00 0.00 0.01 0.01 0.01 0.01 0.02 0.03 0.04 0.04 0.03 0.02 0.03 0.03 0.03 0.03 0.04 0.04
0.01 0.01 0.01 0.01 0.01 0.01 0.01 0.01 0.01 0.00 0.01 0.01 0.01 0.01 0.01 0.01 0.01 0.01 0.01 0.01 0.00 0.00 0.01 0.01 0.01 0.01 0.01 0.01 0.01 0.01 0.01 0.01 0.01 0.02 0.02 0.02 0.03 0.03
0.01 0.00 0.01 0.00 0.00 0.00 0.01 0.01 0.01 0.01 0.01 0.01 0.01 0.01 0.01 0.01 0.01 0.03 0.02 0.01 0.00 0.00 0.00 0.00 0.00 0.00 0.00 0.01 0.01 0.00 0.00 0.00 0.01 0.01 0.01 0.01 0.02 0.03
0.01 0.01 0.01 0.01 0.01 0.01 0.01 0.01 0.01 0.01 0.01 0.01 0.02 0.01 0.01 0.01 0.01 0.03 0.03 0.01 0.00 0.00 0.00 0.00 0.00 0.00 0.00 0.00 0.01 0.01 0.00 0.00 0.00 0.00 0.01 0.01 0.02 0.02
0.01 0.01 0.01 0.02 0.01 0.01 0.01 0.01 0.01 0.01 0.01 0.01 0.01 0.02 0.02 0.01 0.01 0.02 0.04 0.02 0.01 0.01 0.00 0.00 0.00 0.00 0.00 0.00 0.00 0.00 0.01 0.01 0.01 0.01 0.01 0.01 0.01 0.02
0.01 0.01 0.01 0.02 0.02 0.02 0.02 0.02 0.01 0.01 0.01 0.01 0.01 0.01 0.02 0.02 0.01 0.01 0.03 0.03 0.02 0.01 0.01 0.01 0.01 0.00 0.00 0.00 0.00 0.00 0.00 0.01 0.01 0.01 0.01 0.01 0.01 0.01
0.01 0.01 0.01 0.01 0.02 0.02 0.02 0.02 0.02 0.02 0.01 0.01 0.01 0.02 0.02 0.02 0.02 0.02 0.03 0.03 0.02 0.02 0.03 0.03 0.02 0.01 0.00 0.00 0.00 0.00 0.00 0.01 0.01 0.01 0.01 0.01 0.01 0.01
0.01 0.01 0.01 0.02 0.02 0.02 0.02 0.02 0.02 0.02 0.02 0.01 0.01 0.01 0.01 0.02 0.03 0.03 0.03 0.03 0.03 0.03 0.04 0.05 0.03 0.02 0.01 0.00 0.00 0.00 0.01 0.01 0.01 0.01 0.01 0.02 0.01 0.01
0.01 0.01 0.01 0.01 0.01 0.01 0.01 0.02 0.02 0.02 0.02 0.02 0.01 0.01 0.01 0.01 0.02 0.03 0.03 0.03 0.02 0.02 0.04 0.03 0.02 0.01 0.01 0.00 0.00 0.00 0.00 0.00 0.00 0.01 0.01 0.01 0.01 0.01
0.01 0.01 0.01 0.01 0.01 0.01 0.01 0.01 0.01 0.01 0.01 0.01 0.01 0.01 0.01 0.01 0.01 0.01 0.02 0.02 0.02 0.02 0.03 0.02 0.01 0.01 0.01 0.00 0.00 0.01 0.00 0.00 0.00 0.00 0.00 0.01 0.01 0.01
0.01 0.01 0.01 0.01 0.01 0.01 0.01 0.01 0.01 0.01 0.01 0.00 0.01 0.01 0.01 0.01 0.00 0.00 0.01 0.01 0.01 0.01 0.02 0.02 0.01 0.01 0.01 0.00 0.00 0.00 0.01 0.01 0.00 0.00 0.00 0.00 0.01 0.02
0.01 0.01 0.01 0.01 0.01 0.01 0.01 0.01 0.01 0.02 0.01 0.00 0.00 0.01 0.01 0.01 0.00 0.00 0.00 0.00 0.01 0.01 0.01 0.01 0.01 0.00 0.00 0.00 0.00 0.00 0.01 0.01 0.01 0.01 0.01 0.01 0.01 0.01
0.01 0.01 0.01 0.02 0.01 0.01 0.01 0.01 0.02 0.01 0.00 0.00 0.00 0.00 0.00 0.00 0.00 0.00 0.00 0.00 0.00 0.01 0.01 0.01 0.01 0.01 0.01 0.00 0.00 0.00 0.01 0.01 0.01 0.01 0.01 0.01 0.01 0.01
0.01 0.01 0.02 0.02 0.02 0.02 0.01 0.01 0.01 0.00 0.00 0.00 0.00 0.00 0.00 0.00 0.00 0.00 0.00 0.00 0.01 0.01 0.01 0.01 0.01 0.01 0.01 0.01 0.00 0.00 0.01 0.02 0.01 0.01 0.02 0.02 0.02 0.02
0.01 0.02 0.02 0.02 0.01 0.01 0.01 0.01 0.00 0.00 0.00 0.00 0.00 0.00 0.00 0.00 0.00 0.00 0.01 0.01 0.01 0.01 0.01 0.01 0.01 0.01 0.01 0.01 0.01 0.01 0.01 0.02 0.02 0.02 0.02 0.02 0.02 0.02
0.01 0.01 0.02 0.02 0.01 0.01 0.01 0.01 0.01 0.01 0.00 0.00 0.00 0.00 0.00 0.00 0.00 0.01 0.01 0.01 0.01 0.01 0.01 0.01 0.01 0.01 0.01 0.01 0.00 0.00 0.01 0.02 0.02 0.03 0.03 0.03 0.03 0.02
0.02 0.02 0.02 0.02 0.02 0.02 0.02 0.01 0.01 0.01 0.00 0.00 0.00 0.00 0.00 0.01 0.01 0.01 0.01 0.02 0.02 0.01 0.01 0.02 0.01 0.02 0.01 0.01 0.00 0.00 0.01 0.01 0.02 0.03 0.04 0.04 0.03 0.03
0.02 0.02 0.02 0.02 0.02 0.02 0.02 0.01 0.01 0.01 0.00 0.00 0.01 0.01 0.01 0.01 0.01 0.01 0.01 0.01 0.01 0.01 0.01 0.01 0.01 0.01 0.01 0.00 0.00 0.01 0.01 0.01 0.02 0.03 0.03 0.03 0.03 0.03
0.02 0.03 0.03 0.03 0.03 0.02 0.02 0.02 0.01 0.01 0.01 0.01 0.01 0.02 0.02 0.02 0.01 0.01 0.01 0.01 0.01 0.01 0.01 0.01 0.01 0.01 0.01 0.01 0.01 0.01 0.01 0.02 0.02 0.02 0.02 0.03 0.03 0.03
0.01 0.02 0.03 0.03 0.02 0.02 0.01 0.01 0.01 0.01 0.02 0.02 0.02 0.03 0.03 0.02 0.01 0.01 0.01 0.01 0.01 0.01 0.01 0.01 0.02 0.01 0.01 0.01 0.01 0.01 0.01 0.03 0.03 0.02 0.01 0.02 0.03 0.03
0.02 0.02 0.02 0.02 0.02 0.01 0.01 0.01 0.02 0.02 0.03 0.03 0.03 0.03 0.03 0.02 0.02 0.02 0.01 0.01 0.01 0.02 0.01 0.01 0.02 0.01 0.02 0.02 0.01 0.01 0.02 0.04 0.06 0.05 0.03 0.02 0.02 0.02
0.03 0.03 0.03 0.03 0.02 0.02 0.02 0.02 0.02 0.02 0.03 0.03 0.04 0.04 0.03 0.03 0.03 0.03 0.02 0.02 0.02 0.03 0.03 0.03 0.03 0.03 0.03 0.03 0.02 0.02 0.03 0.04 0.06 0.06 0.05 0.04 0.03 0.02
MSLP
1017.14 1017.33 1017.54 1017.76 1017.94 1018.06 1018.08 1018.00 1017.84 1017.61 1017.34 1017.09 1016.89 1016.74 1016.66 1016.63 1016.61 1016.57 1016.49 1016.33 1016.08 1015.75 1015.37 1014.95 1014.52 1014.07 1013.59 1013.03 1012.36 1011.50 1010.40 1009.05 1007.45 1005.64 1003.71 1001.79 1000.03 998.57
1016.32 1016.47 1016.65 1016.84 1017.02 1017.15 1017.21 1017.21 1017.13 1017.01 1016.86 1016.71 1016.60 1016.53 1016.50 1016.50 1016.50 1016.47 1016.39 1016.23 1016.00 1015.69 1015.35 1014.98 1014.60 1014.22 1013.83 1013.38 1012.83 1012.12 1011.21 1010.07 1008.70 1007.13 1005.45 1003.75 1002.17 1000.83
1015.54 1015.65 1015.80 1015.96 1016.12 1016.25 1016.34 1016.39 1016.39 1016.36 1016.32 1016.28 1016.26 1016.28 1016.31 1016.35 1016.38 1016.36 1016.29 1016.14 1015.93 1015.65 1015.34 1015.01 1014.69 1014.37 1014.05 1013.70 1013.27 1012.72 1011.99 1011.07 1009.95 1008.66 1007.25 1005.80 1004.43 1003.24
1014.77 1014.88 1015.00 1015.14 1015.28 1015.41 1015.53 1015.61 1015.67 1015.72 1015.76 1015.81 1015.88 1015.96 1016.05 1016.13 1016.19 1016.21 1016.15 1016.03 1015.84 1015.60 1015.33 1015.04 1014.77 1014.50 1014.25 1013.97 1013.65 1013.23 1012.68 1011.98 1011.10 1010.08 1008.95 1007.77 1006.64 1005.62
1013.95 1014.07 1014.20 1014.33 1014.48 1014.62 1014.75 1014.86 1014.97 1015.07 1015.17 1015.29 1015.41 1015.55 1015.68 1015.81 1015.90 1015.94 1015.93 1015.85 1015.70 1015.51 1015.28 1015.05 1014.82 1014.60 1014.39 1014.18 1013.94 1013.64 1013.24 1012.72 1012.07 1011.30 1010.45 1009.54 1008.64 1007.82
1012.95 1013.11 1013.27 1013.44 1013.61 1013.78 1013.94 1014.09 1014.24 1014.38 1014.52 1014.67 1014.84 1015.00 1015.17 1015.32 1015.45 1015.53 1015.56 1015.53 1015.45 1015.32 1015.16 1014.98 1014.80 1014.63 1014.47 1014.31 1014.13 1013.91 1013.62 1013.26 1012.81 1012.27 1011.67 1011.02 1010.36 1009.75
1011.70 1011.91 1012.13 1012.36 1012.59 1012.81 1013.01 1013.21 1013.39 1013.57 1013.74 1013.92 1014.10 1014.29 1014.47 1014.65 1014.80 1014.93 1015.01 1015.05 1015.04 1014.98 1014.90 1014.80 1014.68 1014.56 1014.44 1014.32 1014.19 1014.03 1013.84 1013.60 1013.31 1012.98 1012.59 1012.18 1011.76 1011.36
1010.18 1010.45 1010.73 1011.03 1011.33 1011.62 1011.89 1012.15 1012.38 1012.60 1012.81 1013.00 1013.20 1013.40 1013.59 1013.78 1013.96 1014.13 1014.27 1014.38 1014.45 1014.49 1014.49 1014.47 1014.43 1014.37 1014.29 1014.21 1014.11 1014.01 1013.89 1013.75 1013.60 1013.42 1013.23 1013.03 1012.83 1012.63
1008.47 1008.77 1009.10 1009.47 1009.84 1010.21 1010.56 1010.88 1011.18 1011.45 1011.69 1011.92 1012.13 1012.34 1012.55 1012.76 1012.97 1013.18 1013.37 1013.55 1013.71 1013.84 1013.93 1014.00 1014.03 1014.03 1014.01 1013.97 1013.91 1013.85 1013.79 1013.74 1013.69 1013.65 1013.62 1013.60 1013.58 1013.57
1006.71 1007.00 1007.36 1007.77 1008.20 1008.63 1009.06 1009.45 1009.82 1010.14 1010.44 1010.70 1010.95 1011.18 1011.41 1011.65 1011.89 1012.13 1012.38 1012.62 1012.85 1013.06 1013.24 1013.39 1013.49 1013.56 1013.60 1013.60 1013.59 1013.58 1013.57 1013.59 1013.63 1013.69 1013.78 1013.90 1014.03 1014.17
1005.07 1005.33 1005.67 1006.09 1006.54 1007.02 1007.50 1007.95 1008.38 1008.77 1009.12 1009.44 1009.73 1010.00 1010.26 1010.53 1010.80 1011.08 1011.37 1011.66 1011.95 1012.22 1012.47 1012.68 1012.86 1012.99 1013.08 1013.14 1013.18 1013.21 1013.26 1013.33 1013.44 1013.58 1013.76 1013.97 1014.21 1014.45
1003.68 1003.87 1004.17 1004.55 1005.00 1005.49 1006.00 1006.49 1006.97 1007.41 1007.82 1008.19 1008.53 1008.85 1009.16 1009.46 1009.77 1010.08 1010.40 1010.73 1011.06 1011.37 1011.67 1011.93 1012.16 1012.34 1012.49 1012.60 1012.69 1012.77 1012.87 1012.98 1013.14 1013.33 1013.57 1013.84 1014.13 1014.43
1002.57 1002.68 1002.92 1003.25 1003.67 1004.13 1004.63 1005.14 1005.65 1006.13 1006.58 1007.01 1007.41 1007.78 1008.14 1008.49 1008.83 1009.17 1009.52 1009.87 1010.21 1010.55 1010.87 1011.16 1011.42 1011.64 1011.83 1011.99 1012.13 1012.26 1012.39 1012.54 1012.73 1012.95 1013.21 1013.50 1013.81 1014.13
1001.65 1001.71 1001.88 1002.17 1002.53 1002.96 1003.44 1003.93 1004.44 1004.95 1005.44 1005.91 1006.37 1006.80 1007.21 1007.61 1007.99 1008.36 1008.73 1009.08 1009.43 1009.77 1010.09 1010.39 1010.66 1010.91 1011.13 1011.32 1011.49 1011.66 1011.83 1012.01 1012.21 1012.43 1012.69 1012.96 1013.26 1013.56
1000.75 1000.80 1000.96 1001.21 1001.54 1001.93 1002.37 1002.85 1003.35 1003.86 1004.37 1004.89 1005.39 1005.88 1006.34 1006.79 1007.21 1007.61 1007.99 1008.35 1008.69 1009.01 1009.32 1009.61 1009.88 1010.13 1010.36 1010.58 1010.78 1010.97 1011.16 1011.36 1011.56 1011.77 1012.00 1012.24 1012.49 1012.75
999.69 999.80 999.99 1000.25 1000.58 1000.96 1001.38 1001.83 1002.32 1002.83 1003.36 1003.90 1004.45 1004.98 1005.50 1005.99 1006.45 1006.88 1007.27 1007.63 1007.96 1008.26 1008.54 1008.81 1009.06 1009.30 1009.53 1009.76 1009.97 1010.18 1010.38 1010.57 1010.76 1010.96 1011.15 1011.34 1011.54 1011.75
998.36 998.59 998.88 999.22 999.59 999.98 1000.40 1000.85 1001.33 1001.85 1002.39 1002.95 1003.53 1004.11 1004.67 1005.20 1005.70 1006.15 1006.55 1006.90 1007.21 1007.49 1007.73 1007.97 1008.19 1008.41 1008.63 1008.84 1009.05 1009.26 1009.46 1009.65 1009.82 1009.99 1010.14 1010.29 1010.44 1010.59
996.77 997.19 997.64 998.10 998.55 999.01 999.47 999.94 1000.43 1000.94 1001.49 1002.07 1002.67 1003.28 1003.87 1004.44 1004.96 1005.43 1005.83 1006.17 1006.45 1006.69 1006.90 1007.09 1007.27 1007.45 1007.64 1007.83 1008.03 1008.22 1008.41 1008.58 1008.74 1008.87 1009.00 1009.11 1009.21 1009.32
995.13 995.76 996.39 997.01 997.59 998.14 998.66 999.17 999.68 1000.21 1000.77 1001.35 1001.97 1002.58 1003.19 1003.77 1004.29 1004.76 1005.15 1005.46 1005.71 1005.91 1006.06 1006.20 1006.33 1006.46 1006.60 1006.76 1006.92 1007.09 1007.25 1007.40 1007.53 1007.65 1007.74 1007.82 1007.90 1007.98
993.74 994.57 995.39 996.17 996.89 997.54 998.13 998.69 999.23 999.77 1000.33 1000.91 1001.52 1002.13 1002.72 1003.29 1003.79 1004.23 1004.58 1004.85 1005.05 1005.18 1005.27 1005.34 1005.40 1005.47 1005.55 1005.66 1005.78 1005.90 1006.03 1006.15 1006.26 1006.35 1006.42 1006.48 1006.54 1006.61
992.95 993.94 994.91 995.82 996.65 997.39 998.05 998.64 999.21 999.75 1000.30 1000.87 1001.44 1002.02 1002.57 1003.09 1003.54 1003.92 1004.21 1004.42 1004.54 1004.60 1004.61 1004.59 1004.57 1004.56 1004.57 1004.61 1004.67 1004.74 1004.82 1004.90 1004.97 1005.04 1005.09 1005.13 1005.17 1005.24
993.05 994.11 995.16 996.15 997.05 997.83 998.53 999.14 999.71 1000.24 1000.77 1001.29 1001.81 1002.32 1002.81 1003.25 1003.62 1003.91 1004.12 1004.23 1004.26 1004.22 1004.14 1004.03 1003.92 1003.82 1003.74 1003.70 1003.68 1003.69 1003.71 1003.74 1003.77 1003.79 1003.81 1003.83 1003.86 1003.91
994.16 995.21 996.26 997.25 998.14 998.92 999.61 1000.21 1000.75 1001.24 1001.72 1002.17 1002.62 1003.05 1003.44 1003.78 1004.04 1004.23 1004.33 1004.33 1004.25 1004.11 1003.93 1003.72 1003.51 1003.32 1003.15 1003.02 1002.92 1002.85 1002.81 1002.77 1002.74 1002.71 1002.69 1002.67 1002.67 1002.70
Thickness
5656 5655 5654 5653 5652 5650 5648 5646 5641 5637 5637 5638 5639 5641 5641 5641 5641 5641 5641 5641 5641 5641 5641 5641 5642 5642 5642 5641 5641 5641 5641 5641 5641 5641 5641 5641 5641 5642
5653 5652 5650 5649 5648 5646 5644 5642 5641 5638 5634 5635 5635 5636 5636 5636 5636 5636 5636 5636 5636 5636 5636 5636 5636 5636 5635 5635 5635 5635 5635 5635 5635 5635 5635 5635 5636 5636
5649 5648 5646 5645 5643 5642 5640 5638 5636 5635 5632 5632 5631 5631 5630 5631 5631 5631 5631 5631 5631 5631 5630 5630 5630 5630 5630 5630 5630 5629 5629 5630 5630 5630 5630 5630 5630 5631
5645 5643 5642 5641 5638 5637 5635 5634 5632 5631 5629 5627 5626 5625 5625 5625 5625 5625 5625 5626 5626 5625 5625 5625 5625 5625 5625 5625 5624 5624 5624 5624 5625 5625 5625 5625 5625 5625
5641 5639 5638 5635 5633 5632 5630 5629 5628 5627 5625 5623 5621 5620 5620 5620 5619 5619 5619 5619 5620 5620 5620 5620 5620 5620 5620 5619 5619 5619 5619 5619 5620 5620 5620 5620 5620 5620
5637 5636 5634 5632 5630 5628 5626 5625 5623 5621 5619 5618 5616 5615 5614 5614 5613 5612 5612 5612 5613 5614 5614 5614 5614 5614 5614 5614 5614 5614 5614 5615 5615 5615 5615 5615 5615 5615
5632 5631 5630 5628 5627 5625 5624 5621 5619 5616 5614 5612 5610 5609 5608 5608 5607 5607 5606 5605 5606 5607 5607 5608 5608 5608 5608 5609 5609 5609 5610 5610 5610 5610 5610 5609 5609 5609
5627 5626 5625 5623 5623 5622 5621 5619 5617 5614 5610 5608 5606 5605 5605 5604 5603 5602 5600 5599 5599 5601 5601 5601 5601 5602 5603 5603 5604 5604 5604 5604 5604 5604 5604 5604 5603 5603
5623 5621 5620 5620 5618 5616 5615 5614 5613 5612 5611 5608 5604 5604 5602 5602 5599 5596 5595 5595 5595 5595 5594 5594 5594 5595 5597 5598 5598 5599 5599 5599 5599 5599 5598 5598 5597 5597
5618 5616 5614 5613 5612 5610 5608 5606 5605 5605 5604 5603 5602 5602 5601 5599 5597 5595 5593 5590 5589 5588 5588 5588 5588 5589 5591 5591 5592 5592 5593 5593 5593 5592 5592 5591 5591 5590
5613 5611 5609 5608 5607 5605 5602 5599 5598 5598 5598 5598 5597 5596 5595 5593 5592 5588 5585 5583 5582 5582 5582 5582 5582 5581 5582 5584 5585 5586 5586 5586 5586 5586 5585 5585 5584 5583
5606 5605 5604 5603 5602 5599 5596 5594 5591 5591 5591 5590 5589 5589 5588 5586 5585 5584 5582 5579 5577 5577 5576 5575 5575 5574 5575 5577 5578 5578 5579 5579 5579 5579 5578 5578 5577 5576
5599 5598 5598 5597 5596 5594 5591 5589 5589 5587 5584 5583 5581 5580 5580 5579 5578 5578 5577 5576 5574 5573 5572 5570 5569 5568 5568 5569 5570 5571 5571 5571 5572 5571 5571 5570 5569 5569
5595 5594 5593 5592 5590 5588 5586 5585 5583 5580 5577 5575 5573 5572 5572 5572 5572 5572 5571 5570 5570 5569 5568 5566 5565 5563 5562 5562 5562 5563 5563 5564 5564 5564 5563 5562 5561 5560
5590 5589 5588 5586 5584 5581 5580 5578 5576 5573 5570 5567 5567 5566 5567 5566 5565 5565 5564 5563 5563 5562 5561 5561 5560 5559 5558 5557 5557 5556 5555 5556 5556 5556 5555 5554 5553 5552
5581 5581 5580 5578 5576 5574 5572 5570 5568 5566 5565 5563 5562 5561 5560 5559 5558 5557 5556 5556 5555 5554 5554 5554 5554 5553 5551 5551 5550 5549 5548 5548 5548 5547 5547 5546 5545 5544
5572 5570 5569 5568 5566 5564 5562 5561 5560 5559 5558 5556 5555 5553 5552 5552 5551 5550 5549 5549 5548 5547 5546 5546 5546 5545 5545 5544 5543 5543 5542 5540 5540 5539 5538 5537 5537 5537
5562 5561 5560 5560 5559 5558 5556 5554 5553 5552 5552 5551 5549 5548 5547 5546 5545 5544 5543 5542 5542 5541 5540 5538 5536 5535 5535 5535 5535 5535 5534 5533 5532 5530 5529 5528 5529 5529
5552 5553 5553 5552 5552 5551 5550 5549 5548 5547 5545 5544 5544 5542 5541 5540 5539 5538 5537 5535 5535 5534 5533 5531 5530 5529 5529 5530 5529 5528 5527 5526 5524 5522 5521 5520 5521 5522
5543 5544 5544 5544 5544 5543 5543 5542 5542 5540 5538 5538 5537 5536 5535 5534 5533 5532 5531 5530 5529 5528 5526 5525 5524 5524 5524 5524 5522 5520 5519 5517 5516 5514 5513 5511 5511 5511
5534 5535 5536 5535 5535 5536 5535 5535 5534 5533 5533 5532 5531 5531 5529 5528 5527 5527 5525 5525 5523 5522 5521 5520 5520 5518 5516 5514 5512 5512 5510 5509 5508 5506 5504 5502 5501 5501
5526 5526 5527 5527 5527 5527 5527 5526 5526 5526 5526 5525 5525 5525 5524 5523 5522 5521 5520 5518 5517 5516 5515 5514 5511 5509 5507 5507 5507 5505 5502 5500 5498 5497 5495 5495 5493 5493
5518 5518 5518 5518 5518 5518 5518 5518 5518 5518 5518 5518 5518 5518 5517 5516 5516 5515 5514 5512 5511 5509 5507 5504 5502 5500 5499 5499 5498 5496 5493 5491 5488 5486 5486 5485 5485 5484